Friday Harbor, WA
on Wednesday, November 14, 2012

Wednesday
Previous Day Next Day
Daily Summary
 ActualAverageRecord
Temperature
Mean Temperature °F °F  
Max Temperature 51°F 48°F 57°F (2001)
Min Temperature 35°F 38°F 30°F (2000)
Degree Days
Heating Degree Days 22    
Moisture
Dew Point 42°F   
Average Humidity 91    
Maximum Humidity 100    
Minimum Humidity 74    
Precipitation
Precipitation 0.00 in in in ()
Wind
Wind Speed 0 mph   
Max Wind Speed 5 mph   
Max Gust Speed mph   
Visibility 7 miles   
Events Fog   
Averages and records for this station are not official NWS values.
Key: T is trace of precipitation, MM is missing value
Source: NWS Daily Summary
Seasonal Weather Averages
Time(PST)TemperatureDew PointHumidity Pressure Visibility Wind DirectionWind SpeedGust SpeedPrecipitationEvents Conditions
12:11 AM 46.4°F 44.6°F 93% 30.19 in 10.0 miles Calm Calm - N/A   Overcast
12:53 AM 45.0°F 43.0°F 93% 30.19 in 8.0 miles Calm Calm - N/A   Overcast
1:53 AM 43.0°F 42.1°F 97% 30.20 in 4.0 miles Calm Calm - N/A   Overcast
2:53 AM 44.1°F 43.0°F 96% 30.21 in 9.0 miles Calm Calm - N/A   Overcast
3:32 AM 44.6°F 42.8°F 93% 30.21 in 8.0 miles Calm Calm - N/A   Overcast
3:53 AM 43.0°F 42.1°F 97% 30.21 in 8.0 miles Calm Calm - N/A   Overcast
4:53 AM 45.0°F 44.1°F 97% 30.23 in 10.0 miles Calm Calm - N/A   Overcast
5:53 AM 43.0°F 41.0°F 93% 30.25 in 9.0 miles Calm Calm - N/A   Mostly Cloudy
5:58 AM 42.8°F 41.0°F 93% 30.25 in 9.0 miles Calm Calm - N/A   Scattered Clouds
6:15 AM 42.8°F 42.8°F 100% 30.25 in 10.0 miles Calm Calm - N/A   Mostly Cloudy
6:26 AM 42.8°F 42.8°F 100% 30.25 in 8.0 miles NW 3.5 mph - N/A   Mostly Cloudy
6:53 AM 42.1°F 39.9°F 92% 30.25 in 5.0 miles Calm Calm - N/A   Mostly Cloudy
7:49 AM 42.8°F 42.8°F 100% 30.28 in 5.0 miles Calm Calm - N/A   Overcast
7:53 AM 43.0°F 42.1°F 97% 30.28 in 6.0 miles Calm Calm - N/A   Overcast
8:16 AM 44.6°F 42.8°F 93% 30.29 in 5.0 miles Calm Calm - N/A   Overcast
8:23 AM 42.8°F 42.8°F 100% 30.29 in 3.0 miles Calm Calm - N/A   Overcast
8:37 AM 44.6°F 42.8°F 93% 30.29 in 5.0 miles Calm Calm - N/A   Overcast
8:53 AM 45.0°F 44.1°F 97% 30.30 in 6.0 miles Calm Calm - N/A   Overcast
9:24 AM 46.4°F 44.6°F 93% 30.30 in 8.0 miles Calm Calm - N/A   Overcast
9:49 AM 48.2°F 46.4°F 93% 30.30 in 9.0 miles Calm Calm - N/A   Overcast
9:53 AM 48.0°F 46.0°F 93% 30.31 in 9.0 miles Calm Calm - N/A   Overcast
10:02 AM 48.2°F 46.4°F 93% 30.31 in 10.0 miles Calm Calm - N/A   Overcast
10:49 AM 48.2°F 44.6°F 87% 30.32 in 10.0 miles Calm Calm - N/A   Overcast
10:50 AM 48.9°F 45.0°F 86% 30.32 in 10.0 miles Calm Calm - N/A   Overcast
10:58 AM 48.2°F 44.6°F 87% 30.32 in 10.0 miles Calm Calm - N/A   Mostly Cloudy
11:30 AM 50.0°F 44.6°F 82% 30.32 in 10.0 miles Calm Calm - N/A   Mostly Cloudy
11:42 AM 48.2°F 44.6°F 87% 30.32 in 10.0 miles Calm Calm - N/A   Overcast
11:53 AM 50.0°F 44.1°F 80% 30.32 in 10.0 miles Calm Calm - N/A   Overcast
12:00 PM 48.2°F 44.6°F 87% 30.32 in 10.0 miles Calm Calm - N/A   Overcast
12:22 PM 51.8°F 44.6°F 76% 30.32 in 10.0 miles Calm Calm - N/A   Overcast
12:53 PM 48.9°F 44.1°F 83% 30.32 in 10.0 miles East 3.5 mph - N/A   Mostly Cloudy
1:53 PM 50.0°F 43.0°F 77% 30.33 in 10.0 miles Calm Calm - N/A   Mostly Cloudy
2:30 PM 50.0°F 42.8°F 76% 30.33 in 10.0 miles Calm Calm - N/A   Partly Cloudy
2:53 PM 50.0°F 42.1°F 74% 30.32 in 10.0 miles Calm Calm - N/A   Clear
3:39 PM 50.0°F 42.8°F 76% 30.33 in 10.0 miles South 3.5 mph - N/A   Mostly Cloudy
3:53 PM 48.9°F 43.0°F 80% 30.33 in 10.0 miles South 4.6 mph - N/A   Overcast
4:21 PM 46.4°F 42.8°F 87% 30.33 in 10.0 miles Calm Calm - N/A   Partly Cloudy
4:53 PM 43.0°F 41.0°F 93% 30.34 in 10.0 miles Calm Calm - N/A   Clear
5:53 PM 41.0°F 39.9°F 96% 30.34 in 10.0 miles WNW 3.5 mph - N/A   Clear
6:20 PM 39.2°F 37.4°F 93% 30.33 in 1.8 miles Calm Calm - N/A   Clear
6:29 PM 39.2°F 37.4°F 93% 30.34 in 3.0 miles Calm Calm - N/A   Clear
6:53 PM 39.9°F 39.0°F 97% 30.34 in 8.0 miles Calm Calm - N/A   Clear
7:53 PM 39.0°F 37.0°F 93% 30.34 in 1.5 miles Calm Calm - N/A   Partly Cloudy
8:02 PM 39.2°F 39.2°F 100% 30.33 in 3.0 miles Calm Calm - N/A   Partly Cloudy
8:48 PM 37.4°F 35.6°F 93% 30.33 in 2.5 miles Calm Calm - N/A   Partly Cloudy
8:53 PM 37.0°F 36.0°F 96% 30.33 in 1.8 miles North 3.5 mph - N/A   Partly Cloudy
8:59 PM 37.4°F 35.6°F 93% 30.33 in 3.0 miles Calm Calm - N/A   Partly Cloudy
9:16 PM 35.6°F 35.6°F 100% 30.33 in 1.8 miles Calm Calm - N/A   Clear
9:43 PM 37.4°F 35.6°F 93% 30.33 in 2.0 miles Calm Calm - N/A   Partly Cloudy
9:53 PM 39.9°F 37.9°F 93% 30.33 in 1.0 miles Calm Calm - N/A   Mist
10:01 PM 42.8°F 41.0°F 93% 30.33 in 0.5 miles NW 3.5 mph - N/A Fog Fog
10:31 PM 42.8°F 42.8°F 100% 30.32 in 2.0 miles Calm Calm - N/A   Overcast
10:39 PM 42.8°F 41.0°F 93% 30.32 in 5.0 miles Calm Calm - N/A   Mostly Cloudy
10:51 PM 42.8°F 41.0°F 93% 30.32 in 7.0 miles Calm Calm - N/A   Scattered Clouds
10:53 PM 43.0°F 42.1°F 97% 30.32 in 8.0 miles Calm Calm - N/A   Partly Cloudy
11:53 PM 41.0°F 39.0°F 93% 30.31 in 8.0 miles Calm Calm - N/A   Clear
Moon Phase
Nov. 14 Nov. 20 Nov. 28 Dec. 06 Dec. 13
Sunrise:07:19 AM (PST) Moon Rise:08:20 AM (PST)11/14
Sunset:04:33 PM (PST) Moon Set:05:21 PM (PST)11/14

Copyright © 2014 The Weather Underground, Inc.